Weather History for Nome, AK

Change the Weather History Date:

Sunday, November 10, 1974

  Actual Average Record
Temperature  
Mean Temperature 22 °F 19 °F  
Max Temperature 31 °F 25 °F 40 °F (1979)
Min Temperature 14 °F 13 °F -15 °F (1975)
Degree Days  
Heating Degree Days 42 47  
Month to date heating degree days 449  
Since 1 July heating degree days 3104  
Cooling Degree Days 0    
Month to date cooling degree days  
Year to date cooling degree days  
Moisture  
Dew Point 24 °F    
Average Humidity 96    
Maximum Humidity 100    
Minimum Humidity 89    
Precipitation  
Precipitation 0.54 in 0.05 in 0.35 in (1982)
Month to date precipitation 0.44  
Year to date precipitation 14.95  
Snow  
Snow 0.00 in 0.40 in 4.50 in (1948)
Month to date snowfall 3.8  
Since 1 July snowfall 9.0  
Since 1 September snowfall 9.0  
Snow Depth -    
Sea Level Pressure  
Sea Level Pressure 29.65 in    
Wind  
Wind Speed 12 mph (SE)    
Max Wind Speed 29 mph    
Max Gust Speed 41 mph    
Visibility 5 miles    
Events Fog , Snow    
T = Trace of Precipitation, MM = Missing Value Source: NWS Daily Summary

Daily Weather History Graph

Daily Weather History Graph

Search for Another Location

Airport:

Trip Planner

Search our weather history database for the weather conditions in past years. The results will help you decide how hot, cold, wet, or windy it might be!

Date:

Astronomy

Nov. 10, 1974 Rise Set
Actual Time 9:17 AM AHST 4:13 PM AHST
Civil Twilight 8:18 AM AHST 5:11 PM AHST
Nautical Twilight 7:18 AM AHST 6:11 PM AHST
Astronomical Twilight 6:21 AM AHST 7:08 PM AHST
Moon 4:42 AM AHST (11/10) 3:00 PM AHST (11/10)
Length of Visible Light 8h 53m
Length of Day
6h 56m
Waning Crescent, 12% of the Moon is Illuminated
Nov 10
Waning Crescent
Nov 13
New
Nov 21
First Quarter
Nov 29
Full
Dec 6
Last Quarter

Hourly Weather History & Observations

Time (AHST) Temp. Windchill Dew Point Humidity Pressure Visibility Wind Dir Wind Speed Gust Speed Precip Events Conditions
12:00 AM 14.2 °F 8.4 °F 13.1 °F 95% 29.96 in 8.0 mi NNE 3.5 mph - N/A   Overcast
1:00 AM 15.3 °F 6.6 °F 13.1 °F 91% 29.95 in 8.0 mi ENE 5.8 mph - N/A   Mostly Cloudy
2:00 AM 18.0 °F 8.7 °F 16.0 °F 92% 29.91 in 8.0 mi East 6.9 mph - N/A   Mostly Cloudy
3:00 AM - - - N/A% 0.00 in 8.0 mi North - - N/A   Overcast
4:00 AM 20.1 °F 8.1 °F 17.2 °F 89% 29.86 in 7.0 mi SE 11.5 mph - N/A Snow Light Snow
5:00 AM 23.0 °F 8.7 °F 21.9 °F 96% 29.80 in 1.0 mi SE 18.4 mph 27.6 mph N/A Snow Light Snow
6:00 AM 24.3 °F 7.7 °F 23.2 °F 96% 29.73 in 10.5 mi SE 27.6 mph - N/A Snow Light Blowing Snow
7:00 AM 24.3 °F 8.6 °F 23.2 °F 96% 29.67 in 0.2 mi SE 24.2 mph 33.4 mph N/A Snow Light Snow
8:00 AM 24.1 °F 7.4 °F 24.1 °F 100% 29.60 in 0.2 mi SE 27.6 mph - N/A Snow Light Snow
9:00 AM 24.3 °F 7.4 °F 24.3 °F 100% 29.54 in 0.2 mi SE 28.8 mph 41.4 mph N/A Snow Light Snow
10:00 AM 25.2 °F 9.5 °F 25.2 °F 100% 29.49 in 0.1 mi ESE 25.3 mph 34.5 mph N/A Snow Light Snow
11:00 AM 25.0 °F 10.6 °F 25.0 °F 100% 29.47 in 0.5 mi East 20.7 mph - N/A Snow Light Snow
12:00 PM 26.2 °F 13.8 °F 25.2 °F 96% 29.47 in 1.0 mi East 16.1 mph - N/A Snow Light Snow
2:00 PM 27.0 °F - 25.0 °F 92% 29.52 in 7.0 mi Calm Calm - N/A Snow Light Snow
4:00 PM 31.1 °F 23.1 °F 29.1 °F 92% 29.55 in 7.0 mi SW 9.2 mph - N/A Snow Light Snow
5:00 PM 30.9 °F 22.8 °F 30.0 °F 96% 29.56 in 7.0 mi SSW 9.2 mph - N/A Snow Light Snow
6:00 PM 31.1 °F 21.4 °F 30.2 °F 96% 29.57 in 7.0 mi SW 12.7 mph - N/A   Overcast
8:00 PM 30.9 °F 22.8 °F 28.9 °F 92% 29.60 in 7.0 mi South 9.2 mph - N/A   Overcast
9:00 PM 28.2 °F 20.2 °F 28.2 °F 100% 29.60 in 6.0 mi SSE 8.1 mph - N/A Fog Fog
10:00 PM 29.1 °F 22.1 °F 28.2 °F 96% 29.60 in 3.0 mi East 6.9 mph - N/A Fog Fog
11:00 PM 30.9 °F 22.8 °F 30.0 °F 96% 29.60 in 2.0 mi SE 9.2 mph - N/A Fog Fog